Vorticity
1 1 1 2 1 1 3 2 2 1 2 2 2 3 3 3 4 5 5 4 4 5 5 6 6 5 5 5 4 3 4 4 4 4 4 3 4 3 4 4 4 4 4 4 3 3 3 3 4 4 4 4 4 5 5 5 6 6 6 7 7 7 6 5 5 5 6 6 6 5 4 4 4 4 4 4 4 4 4 3 3 3 3 4 4 4 4 4
0 1 0 1 1 1 2 2 3 2 2 2 2 2 2 2 2 3 4 5 6 5 6 6 7 8 6 7 6 5 5 4 5 6 4 3 4 4 4 4 4 4 4 5 4 6 6 7 7 6 6 6 6 5 6 6 5 6 6 6 6 5 4 4 4 4 4 4 4 3 3 4 3 3 3 3 3 3 3 3 4 3 3 4 4 4 4 3
-0 1 1 1 1 1 1 1 2 2 3 3 2 2 2 2 2 3 3 4 6 6 7 7 8 8 8 7 7 6 6 5 6 7 6 6 6 6 7 7 8 8 8 7 6 6 6 7 6 5 5 5 5 5 5 5 4 4 4 5 4 3 3 3 3 3 2 3 3 2 2 3 2 3 3 3 3 3 4 3 3 3 4 5 6 5 5 4
1 1 1 1 1 1 1 1 2 2 3 2 2 2 2 2 2 4 4 5 8 8 9 10 10 10 10 9 9 8 7 6 5 6 6 7 7 7 8 7 7 6 6 6 5 5 5 6 6 6 6 5 5 4 4 4 4 4 4 5 4 3 4 3 2 3 2 3 3 3 3 4 4 4 4 5 5 5 6 5 6 7 8 8 8 7 7 8
1 1 0 1 1 1 1 1 2 2 2 1 2 3 4 5 6 7 9 10 10 11 11 11 11 10 10 10 10 10 9 7 6 7 7 7 8 7 6 5 5 5 5 6 7 7 6 6 6 6 5 4 4 4 3 3 3 4 4 6 5 5 6 5 4 5 6 6 6 6 7 8 8 8 7 8 8 9 10 9 10 11 11 10 9 10 10 11
-0 0 1 1 1 1 2 1 1 1 2 2 4 5 6 8 10 11 11 12 12 12 11 10 11 10 11 11 10 11 10 10 9 8 8 8 7 6 6 6 6 7 7 7 7 6 5 4 4 4 5 5 5 4 4 4 5 6 7 8 7 8 9 9 10 11 11 11 11 11 11 12 11 11 11 11 10 11 12 12 13 12 12 12 12 12 12 12
-0 0 0 1 1 1 1 1 1 2 3 4 6 7 10 11 12 12 12 13 12 12 12 11 12 12 13 13 12 12 11 12 11 9 8 8 8 7 7 7 6 6 5 5 4 4 4 5 6 7 8 9 8 8 9 9 10 12 13 13 12 12 11 11 12 12 13 13 14 14 13 13 12 13 12 12 12 13 14 15 15 14 15 14 14 13 13 12
-0 0 1 0 1 1 1 2 2 4 5 6 8 9 11 11 11 13 13 13 12 12 13 12 12 11 11 11 12 11 11 11 10 9 8 7 7 6 6 5 5 5 4 5 6 7 8 9 9 9 10 10 10 10 11 12 12 12 11 11 11 11 10 10 10 10 11 11 12 11 11 12 12 12 11 12 14 15 16 15 15 14 14 13 12 12 11 10
0 0 1 1 1 1 1 3 4 5 6 7 9 10 11 11 12 13 13 12 12 11 10 9 8 8 7 7 8 7 8 9 8 8 7 6 5 5 5 5 6 7 7 8 9 9 9 10 10 10 9 9 9 10 11 10 10 9 7 8 9 9 9 10 10 10 10 9 10 11 11 10 9 9 9 11 14 14 14 12 11 10 9 9 9 9 8 8
2 0 0 1 1 1 2 4 5 5 7 8 9 10 11 13 14 14 13 11 10 8 6 6 5 5 6 6 6 7 8 7 7 7 6 6 6 6 7 7 8 9 9 10 10 10 10 11 11 11 11 11 11 11 11 10 10 11 10 10 9 9 10 10 11 10 10 9 10 11 9 6 7 8 10 11 12 10 9 9 8 8 8 8 7 7 7 7
2 1 2 2 1 2 4 5 6 7 8 9 10 12 15 16 15 12 10 9 7 6 5 5 5 5 6 6 7 8 8 7 7 8 8 9 9 9 9 10 10 10 11 11 11 12 12 12 12 12 12 11 11 10 11 11 10 10 10 10 8 8 9 9 9 8 8 8 9 9 5 4 8 10 10 9 8 7 7 7 7 7 7 6 6 6 7 7
2 2 2 1 3 4 5 6 7 8 9 11 14 17 18 15 11 8 6 6 5 5 5 5 5 6 7 7 8 8 8 8 8 9 10 11 11 11 12 11 11 11 11 11 11 11 11 10 9 9 9 9 9 8 9 7 6 6 6 7 6 5 6 5 5 5 6 6 6 7 3 4 8 9 7 6 6 6 6 6 6 6 6 6 6 6 6 6
3 2 2 3 4 4 6 7 7 9 13 17 20 19 15 11 8 6 5 5 5 5 6 6 6 7 8 9 9 10 9 9 10 10 10 11 11 11 11 10 10 10 10 9 8 8 8 7 6 6 6 6 6 5 5 3 4 5 5 6 5 6 6 5 5 4 5 4 4 5 3 4 7 6 6 5 5 5 4 4 5 5 5 6 6 6 6 5
3 1 3 3 4 6 7 7 10 17 20 19 17 13 9 7 5 4 4 5 5 6 6 7 8 9 10 11 11 10 10 10 10 10 10 10 9 9 9 8 8 8 6 6 6 6 6 5 5 5 5 6 6 5 6 6 7 7 7 6 6 8 7 6 7 7 7 7 7 7 5 7 8 7 7 6 6 5 5 5 4 4 4 4 4 3 3 3
2 1 2 3 5 7 8 12 20 22 19 14 11 7 6 5 4 5 5 6 6 7 8 9 9 9 10 11 10 10 10 10 9 9 9 9 7 6 6 6 6 5 4 6 6 7 7 7 8 9 9 9 9 8 9 9 8 8 8 8 8 8 7 8 9 8 9 8 8 8 7 8 9 8 8 8 8 8 7 7 6 5 5 4 4 4 4 4
2 1 3 6 8 10 14 21 22 16 10 7 6 5 5 4 5 6 6 7 7 8 9 9 9 8 10 9 8 10 10 9 9 9 8 6 5 5 5 6 7 7 8 9 10 10 10 10 10 10 9 9 9 8 8 7 7 8 7 8 8 8 8 8 7 8 9 8 8 9 8 9 10 9 10 9 9 9 8 8 8 8 8 8 8 7 7 7
2 3 6 8 10 16 22 20 13 8 6 4 5 5 5 5 6 7 7 8 8 9 9 8 8 9 8 8 9 9 7 9 9 7 5 6 7 8 8 9 10 10 11 10 10 10 9 9 8 8 8 7 7 7 7 7 7 7 7 7 7 7 8 7 7 8 8 8 8 8 8 9 9 9 9 9 9 9 9 9 10 10 9 9 10 10 10 10
3 6 9 11 17 21 18 11 6 5 4 4 5 5 6 7 7 7 7 8 8 9 8 7 8 9 8 9 9 5 5 8 7 6 7 9 10 10 10 10 10 10 9 8 8 8 8 7 7 6 6 6 7 7 7 8 8 9 9 8 9 10 9 9 9 10 9 9 9 9 10 9 9 9 9 9 9 9 9 9 9 9 9 9 10 10 11 11
7 9 13 17 20 16 8 5 5 4 5 5 5 5 7 7 7 8 9 9 9 8 8 8 8 9 9 8 6 4 7 10 10 10 10 11 11 10 11 10 9 8 5 6 6 6 6 5 5 5 5 7 8 8 9 9 10 10 10 10 11 11 10 11 11 11 11 11 11 11 11 11 11 11 11 10 9 9 9 9 9 8 8 8 8 9 9 10
10 12 18 19 14 8 5 5 4 5 5 5 5 7 7 7 9 10 8 8 9 9 9 8 8 9 8 6 7 10 12 12 12 12 11 11 10 9 10 8 7 4 1 3 5 4 5 5 6 6 7 8 9 10 10 11 11 11 12 12 12 12 11 12 11 11 10 9 9 9 8 8 7 7 7 7 8 9 9 9 8 8 9 9 10 10 10 9
13 18 19 13 7 5 5 5 5 6 5 6 8 8 7 7 9 8 6 8 9 9 8 6 7 9 7 8 12 14 13 11 11 12 11 9 5 4 5 4 5 5 1 2 5 5 6 7 7 8 8 9 10 10 11 11 12 12 12 12 12 11 10 9 9 7 7 7 6 7 6 6 6 6 6 7 8 7 7 7 8 9 10 11 11 11 11 11
17 19 12 6 5 5 4 6 6 5 6 8 8 7 8 8 7 6 7 9 9 7 7 6 8 10 11 13 14 14 13 12 10 9 7 4 2 2 1 2 5 6 4 4 5 6 7 8 8 8 9 10 10 11 11 11 11 11 10 9 7 6 6 7 7 6 7 7 8 9 7 8 10 10 10 10 9 8 8 8 9 10 10 10 10 11 11 12
19 12 5 6 6 4 5 6 5 6 8 8 7 8 9 8 7 7 8 9 7 5 6 9 11 14 15 13 12 11 9 8 4 2 2 2 2 4 2 3 6 6 6 6 6 7 8 8 9 10 10 11 11 11 9 9 8 7 6 5 6 6 7 7 7 7 7 8 9 7 6 8 12 13 12 13 14 14 14 13 12 11 11 12 13 14 16 18
12 5 5 6 5 5 6 5 6 8 8 7 9 9 8 7 7 7 8 7 5 6 11 14 14 15 13 10 10 7 2 2 1 0 2 2 2 4 3 4 7 7 7 7 8 9 10 10 11 11 11 10 10 9 8 8 7 6 6 7 7 8 7 7 8 7 7 9 9 7 6 9 13 16 16 17 18 18 18 18 18 18 19 19 19 19 19 19
7 5 6 5 4 5 5 7 9 7 8 9 10 7 6 8 8 8 7 5 7 12 15 14 12 13 11 7 5 2 2 2 1 2 4 3 4 5 5 7 8 7 9 10 10 11 11 11 10 10 10 9 8 8 8 7 7 7 8 8 8 8 8 8 8 7 7 9 9 8 10 12 14 17 18 18 19 19 19 20 21 21 21 19 17 16 14 14
6 6 5 4 5 5 6 9 8 7 10 9 7 6 9 10 7 6 7 9 13 14 13 11 10 10 8 4 -0 -0 2 2 1 4 4 4 5 6 7 9 9 10 12 11 10 11 11 11 10 10 9 8 8 8 8 8 8 9 9 8 8 7 8 7 7 9 10 11 12 13 14 16 19 19 19 20 20 19 18 18 17 15 14 15 16 18 18 16
6 4 4 4 5 6 8 8 7 9 10 7 8 10 9 7 6 9 13 14 13 10 10 10 7 4 1 -0 -0 1 2 2 3 5 5 7 9 9 10 12 10 11 11 9 10 11 10 10 9 8 8 8 9 8 9 9 9 9 8 8 8 8 8 8 10 13 14 17 18 18 18 19 24 25 22 20 18 18 18 17 16 17 19 21 19 15 11 7
4 3 4 5 6 6 7 8 9 10 9 8 10 8 6 8 11 15 15 13 11 8 11 12 5 2 1 -0 0 2 3 3 5 6 7 10 10 9 11 11 10 9 9 9 10 10 10 10 9 8 9 9 9 9 9 10 9 9 9 9 9 10 11 12 15 17 19 22 22 22 22 21 25 26 21 19 18 19 20 20 21 21 19 13 6 3 2 3
3 4 6 7 6 6 8 10 11 10 10 9 7 7 11 15 15 14 11 10 10 7 9 9 2 -1 1 1 1 2 3 5 7 8 10 12 11 11 10 9 8 8 9 10 11 11 10 10 9 9 9 9 10 10 10 10 9 10 10 10 10 12 14 16 20 22 22 23 23 23 23 22 24 23 19 19 20 21 21 22 23 22 18 11 5 6 8 9
5 5 7 7 7 9 11 12 12 10 8 6 7 13 16 14 13 11 9 8 7 4 2 3 1 -1 2 3 3 5 7 8 10 10 11 11 9 8 7 8 8 9 10 11 11 11 10 10 9 9 9 10 11 10 10 11 11 10 10 12 14 16 19 21 24 24 21 22 23 23 20 19 21 19 16 17 18 17 18 18 19 21 22 21 20 19 18 18
7 6 8 9 9 12 12 11 9 6 7 9 14 16 13 10 11 10 9 8 5 2 0 0 1 2 3 5 7 8 10 11 12 13 13 11 10 9 10 11 10 10 11 11 10 11 10 10 10 10 11 11 11 11 11 12 11 11 12 14 16 17 18 21 22 22 20 20 21 18 15 14 15 14 13 12 12 12 12 13 14 13 14 16 16 16 15 14
7 8 10 12 13 13 10 8 7 7 11 14 14 12 10 10 9 7 7 6 2 1 1 2 3 4 6 8 9 9 11 12 13 12 10 8 10 10 10 10 10 11 11 11 11 11 11 11 11 11 12 11 11 11 11 11 10 12 13 14 13 11 13 15 16 17 17 16 16 14 13 13 13 13 13 10 9 10 9 9 9 8 8 8 6 7 6 5
10 12 15 15 13 9 7 8 11 13 14 13 10 9 10 8 6 5 3 2 2 2 3 4 5 7 8 9 10 11 13 11 10 8 6 6 7 8 8 9 10 10 11 11 11 12 12 12 12 12 11 10 10 10 10 10 11 13 14 12 12 13 14 14 12 14 17 14 11 13 14 12 13 14 14 11 9 9 10 9 9 7 7 7 6 6 7 6
14 16 15 11 8 7 9 13 14 12 11 10 8 8 10 6 4 4 2 2 3 3 5 6 7 8 9 10 12 12 11 9 8 7 7 9 9 10 10 10 10 10 11 11 11 12 12 11 12 11 10 10 10 10 10 10 13 14 13 12 13 14 14 13 12 13 15 12 10 12 12 12 16 17 16 15 13 11 12 10 10 10 9 9 9 9 9 8
17 13 9 6 8 12 14 13 11 9 10 10 8 7 7 5 3 3 2 4 5 5 7 7 7 8 9 10 12 11 9 8 8 8 7 8 9 10 10 10 11 11 11 11 11 11 11 10 11 9 9 10 10 10 10 12 14 13 12 13 12 11 10 11 13 12 13 13 10 10 11 12 17 17 15 18 17 16 16 15 14 14 13 14 13 12 12 11
11 7 7 10 14 13 11 10 8 9 10 9 8 6 4 3 4 3 3 6 6 6 9 10 10 11 12 11 10 9 8 8 8 7 8 8 9 9 10 11 12 11 11 11 11 11 11 11 11 10 10 10 9 10 10 13 13 11 12 12 9 9 10 11 12 10 13 14 9 6 10 12 13 13 12 13 15 15 16 16 15 15 15 16 14 13 13 13
7 9 12 13 12 8 8 9 9 9 7 6 5 5 4 4 5 5 6 7 7 8 10 11 12 12 12 11 9 8 8 8 8 8 9 9 9 10 11 11 11 11 11 10 11 11 10 11 11 10 11 10 10 10 11 13 12 11 12 11 10 12 12 12 11 9 11 14 9 4 7 11 10 10 10 9 9 11 11 11 10 10 10 10 9 9 10 9
11 13 13 10 8 8 9 10 9 7 6 5 4 4 5 5 6 7 7 8 9 11 11 11 11 11 10 9 9 9 8 8 9 9 9 9 10 10 11 10 10 11 11 11 11 11 11 11 11 10 11 10 10 11 12 13 12 12 12 11 12 12 11 12 10 9 10 12 11 6 4 9 10 8 8 8 7 7 7 7 6 6 5 5 5 4 5 4
12 11 10 8 8 8 8 7 8 7 5 3 4 6 7 7 8 8 8 9 10 10 10 10 10 9 9 9 9 9 9 9 10 9 9 10 10 10 10 10 11 11 11 11 11 11 12 12 11 11 11 10 11 12 12 12 11 12 13 12 13 11 10 11 8 8 10 8 9 9 4 4 8 8 6 6 6 5 5 4 3 3 4 3 4 3 2 3
9 9 9 10 9 8 7 5 6 6 3 4 6 7 7 8 9 9 9 10 9 8 9 10 9 9 10 10 9 9 9 9 9 9 9 9 9 10 11 11 12 12 12 12 12 12 12 11 11 12 11 10 12 12 12 11 11 12 12 11 12 10 9 10 6 7 8 4 4 9 7 1 2 7 6 3 5 5 4 4 3 3 3 3 3 3 2 3
9 9 8 9 8 9 9 5 3 4 5 6 8 8 8 8 9 10 10 10 9 10 11 10 10 10 10 9 9 9 9 9 9 9 9 9 10 11 12 12 13 13 12 12 12 12 11 11 11 11 11 11 12 11 11 10 9 9 10 9 10 9 8 8 6 6 6 2 0 5 9 4 -2 3 7 4 5 4 4 5 5 4 4 3 3 2 2 3
8 8 9 8 6 7 7 2 2 6 8 8 7 8 9 9 9 10 10 10 10 11 11 10 10 10 10 9 8 9 9 8 8 9 9 10 11 12 12 13 13 12 12 12 11 11 11 11 11 11 11 11 10 10 10 10 9 8 7 8 7 7 6 5 4 5 5 4 1 1 7 8 0 0 5 6 7 6 4 5 6 6 6 4 4 3 3 4
7 7 8 7 5 8 9 7 7 9 9 9 8 8 9 10 11 10 9 9 9 9 10 9 9 10 10 9 8 9 9 8 9 10 10 11 12 11 12 13 12 11 11 11 11 11 11 12 12 11 10 10 9 9 9 8 8 7 5 5 5 4 5 4 3 5 5 4 4 2 4 7 6 3 2 4 8 8 5 5 6 7 7 6 5 5 5 5
7 7 7 8 8 8 9 8 8 8 9 8 7 8 10 10 10 9 8 8 7 9 9 8 9 10 9 8 9 9 9 10 11 10 10 11 12 11 12 12 11 11 11 11 10 10 11 11 10 8 9 9 7 6 8 7 6 6 5 4 5 4 5 5 3 4 5 3 6 6 4 9 13 8 -0 -0 7 10 6 5 5 6 8 7 6 6 6 6
9 6 6 7 8 7 8 8 6 6 7 8 7 8 10 11 10 9 8 7 7 8 8 7 9 10 7 8 10 10 10 11 10 9 10 11 11 10 11 11 10 10 11 10 9 9 11 10 8 8 7 7 6 4 5 7 6 5 5 4 5 5 5 5 6 6 3 2 8 8 0 6 18 12 -2 -3 5 9 8 6 5 5 7 6 6 7 6 6
9 9 9 8 7 7 7 9 9 6 5 7 8 9 10 10 11 9 8 7 7 7 7 6 8 9 9 11 12 11 11 11 9 9 10 10 11 11 10 10 10 10 9 8 7 7 8 8 7 8 7 5 7 5 4 7 6 5 6 5 4 5 5 6 8 7 3 0 7 8 -3 2 16 11 -2 -1 5 8 8 7 6 6 6 6 5 6 6 7
8 9 9 8 7 8 6 6 8 7 6 7 8 9 10 11 11 9 8 8 6 7 7 5 8 11 11 13 13 10 11 11 9 9 9 9 11 11 9 8 9 10 8 6 6 5 6 6 4 7 7 3 6 6 3 6 6 6 8 6 4 4 4 6 7 7 4 -0 3 7 -1 2 14 8 -2 2 7 8 8 8 8 8 8 7 6 7 8 8
8 8 7 6 7 7 5 5 6 6 7 7 7 9 10 10 12 10 8 9 7 6 8 7 10 12 9 11 12 10 12 11 8 9 9 8 10 11 9 8 8 9 8 7 5 3 6 6 2 5 7 3 5 6 4 5 5 6 9 7 5 5 4 5 6 6 5 2 4 5 0 4 13 5 -2 5 8 7 8 8 9 10 9 8 8 8 9 10
8 7 6 7 8 7 5 5 6 6 6 6 6 8 9 9 12 10 8 9 7 6 8 8 10 10 8 10 12 10 12 11 9 10 10 8 10 10 9 9 8 8 8 8 7 4 5 6 3 5 7 4 4 5 4 6 5 6 10 7 4 6 6 5 5 5 4 4 4 2 -0 8 12 2 -1 7 8 6 8 7 9 10 9 8 8 8 10 11
9 8 6 4 5 7 8 6 6 6 6 5 5 6 7 9 11 10 8 8 7 7 8 8 9 8 8 10 11 11 13 13 11 12 10 9 10 10 9 10 9 8 7 8 9 6 5 6 4 5 7 6 4 4 5 5 5 8 12 6 2 6 7 5 5 4 2 3 4 1 -0 8 10 1 0 6 6 6 7 6 9 12 9 6 7 9 11 11
5 8 10 7 5 7 8 6 6 5 6 6 4 4 6 7 9 10 8 7 7 7 7 8 8 8 8 9 10 11 13 14 14 13 12 11 11 9 9 10 10 8 6 7 10 8 5 7 6 3 6 8 5 4 6 5 7 10 9 3 3 6 4 3 6 5 2 2 3 1 1 8 8 2 2 7 7 6 6 6 10 12 7 5 7 10 11 10
5 5 9 8 6 6 7 7 7 6 6 5 3 4 4 4 7 9 8 6 7 7 7 7 8 8 8 9 10 10 12 13 14 15 15 14 12 10 9 10 10 9 7 7 9 8 6 7 8 5 6 9 7 5 5 6 9 10 6 4 6 5 2 3 7 6 4 4 3 1 5 9 7 2 4 8 8 7 6 9 12 10 6 6 9 11 10 10
Height
5799 5799 5799 5799 5799 5799 5800 5800 5801 5802 5802 5803 5803 5803 5803 5804 5804 5804 5804 5804 5804 5803 5803 5803 5802 5802 5802 5802 5802 5801 5800 5800 5799 5799 5799 5800 5800 5799 5799 5799 5799 5798 5798 5797 5797 5797 5797 5797 5796 5796 5795 5794 5794 5793 5793 5792 5792 5791 5791 5791 5791 5791 5789 5787 5785 5785 5785 5784 5783 5783 5782 5781 5781 5780 5779 5779 5778 5777 5776 5775 5774 5773 5772 5772 5771 5770 5770 5769
5801 5801 5801 5801 5801 5801 5801 5801 5802 5802 5802 5803 5803 5803 5803 5803 5803 5803 5803 5803 5803 5802 5802 5801 5801 5801 5801 5801 5800 5799 5799 5798 5798 5798 5798 5798 5798 5798 5798 5797 5797 5797 5796 5796 5795 5795 5795 5795 5794 5794 5793 5792 5791 5791 5790 5790 5788 5787 5787 5788 5788 5788 5786 5784 5782 5782 5781 5781 5780 5780 5779 5778 5777 5776 5775 5774 5773 5772 5771 5770 5769 5769 5768 5768 5767 5766 5765 5764
5802 5802 5802 5802 5802 5802 5803 5803 5803 5803 5803 5803 5803 5803 5803 5803 5802 5802 5802 5801 5801 5801 5801 5800 5800 5799 5799 5799 5798 5797 5797 5797 5797 5797 5797 5797 5797 5796 5796 5796 5795 5795 5794 5794 5793 5793 5792 5792 5792 5791 5790 5790 5789 5788 5787 5787 5785 5784 5784 5785 5785 5784 5782 5781 5779 5778 5777 5777 5776 5776 5775 5774 5773 5772 5771 5770 5768 5767 5766 5765 5764 5763 5763 5762 5761 5760 5759 5759
5802 5802 5802 5803 5803 5803 5803 5803 5803 5803 5803 5803 5803 5803 5803 5802 5802 5801 5801 5800 5800 5800 5799 5799 5798 5798 5797 5797 5796 5796 5795 5795 5795 5795 5795 5795 5795 5795 5794 5794 5793 5793 5792 5792 5791 5790 5790 5789 5789 5788 5788 5787 5786 5785 5784 5783 5782 5781 5781 5782 5781 5780 5779 5777 5776 5774 5773 5772 5772 5772 5771 5770 5768 5767 5766 5765 5763 5763 5761 5760 5759 5758 5757 5756 5755 5755 5754 5753
5802 5802 5802 5803 5803 5803 5803 5804 5804 5804 5803 5803 5803 5802 5802 5801 5801 5800 5800 5799 5799 5798 5798 5797 5797 5796 5796 5795 5795 5794 5794 5794 5793 5793 5793 5793 5793 5793 5792 5792 5791 5790 5790 5790 5789 5788 5787 5787 5786 5786 5785 5784 5783 5782 5781 5780 5779 5778 5778 5778 5776 5775 5774 5773 5772 5771 5770 5768 5767 5766 5766 5765 5764 5762 5761 5760 5759 5758 5756 5754 5754 5753 5752 5751 5750 5749 5748 5747
5803 5803 5803 5804 5804 5804 5804 5804 5804 5803 5803 5802 5802 5801 5800 5800 5799 5799 5799 5798 5797 5797 5796 5796 5795 5795 5794 5793 5793 5793 5793 5792 5792 5792 5792 5792 5791 5791 5790 5789 5789 5788 5788 5787 5786 5786 5785 5784 5784 5783 5782 5781 5780 5779 5777 5776 5775 5775 5774 5773 5772 5771 5770 5768 5767 5766 5765 5764 5763 5761 5761 5760 5759 5758 5756 5755 5753 5752 5751 5750 5749 5748 5747 5746 5744 5743 5742 5741
5803 5804 5804 5804 5804 5804 5804 5803 5803 5803 5802 5801 5800 5800 5799 5798 5798 5798 5797 5796 5796 5795 5795 5794 5794 5793 5793 5792 5792 5792 5791 5791 5791 5790 5790 5790 5789 5789 5788 5787 5787 5786 5785 5785 5784 5784 5783 5782 5781 5780 5779 5778 5777 5776 5774 5773 5772 5772 5771 5769 5768 5767 5766 5765 5763 5762 5761 5760 5759 5757 5756 5755 5754 5753 5752 5750 5748 5747 5746 5745 5744 5742 5741 5740 5739 5738 5737 5736
5803 5804 5804 5804 5803 5803 5803 5802 5802 5801 5800 5799 5799 5798 5797 5797 5797 5796 5796 5795 5794 5793 5793 5793 5793 5792 5792 5791 5791 5790 5790 5790 5790 5789 5789 5788 5788 5787 5787 5786 5785 5784 5784 5783 5782 5781 5780 5780 5779 5778 5777 5776 5775 5773 5772 5771 5769 5769 5767 5766 5765 5763 5763 5761 5760 5759 5758 5756 5755 5754 5752 5751 5750 5749 5747 5746 5745 5744 5743 5741 5739 5737 5736 5735 5734 5732 5731 5730
5802 5803 5802 5802 5802 5802 5801 5801 5800 5799 5798 5798 5797 5797 5796 5796 5795 5795 5794 5794 5793 5792 5792 5792 5792 5791 5791 5790 5790 5789 5789 5789 5788 5788 5787 5786 5786 5785 5785 5784 5784 5783 5782 5781 5780 5779 5778 5777 5776 5775 5774 5773 5772 5770 5769 5768 5767 5765 5764 5763 5762 5760 5760 5758 5757 5755 5754 5753 5751 5749 5748 5747 5746 5744 5743 5743 5742 5740 5739 5736 5734 5733 5731 5730 5728 5727 5726 5725
5802 5802 5802 5801 5801 5801 5800 5799 5799 5798 5797 5796 5796 5796 5795 5794 5794 5794 5793 5792 5792 5792 5792 5791 5791 5790 5790 5789 5789 5788 5787 5787 5786 5786 5785 5784 5784 5783 5783 5782 5781 5780 5779 5778 5777 5776 5775 5774 5773 5772 5771 5770 5769 5768 5766 5765 5763 5762 5760 5759 5758 5757 5756 5755 5753 5752 5750 5749 5748 5746 5744 5743 5741 5740 5739 5738 5737 5735 5734 5732 5730 5728 5726 5725 5724 5722 5721 5720
5802 5802 5802 5801 5801 5800 5800 5799 5798 5797 5797 5796 5795 5794 5794 5793 5793 5793 5792 5792 5792 5791 5791 5790 5790 5789 5789 5788 5788 5787 5786 5785 5785 5784 5783 5782 5782 5781 5780 5780 5779 5778 5777 5776 5775 5774 5773 5772 5771 5770 5768 5767 5766 5765 5763 5762 5760 5759 5757 5755 5754 5753 5751 5751 5749 5748 5747 5745 5744 5742 5740 5739 5738 5736 5735 5733 5732 5730 5728 5727 5725 5724 5722 5720 5718 5717 5716 5714
5802 5802 5802 5801 5801 5800 5799 5798 5798 5797 5796 5795 5794 5794 5793 5793 5792 5792 5792 5791 5791 5791 5790 5789 5789 5788 5787 5787 5786 5785 5784 5784 5783 5782 5782 5781 5780 5779 5778 5777 5776 5775 5774 5773 5772 5771 5770 5769 5768 5767 5765 5764 5763 5761 5760 5758 5757 5755 5754 5752 5750 5749 5747 5746 5745 5744 5742 5741 5740 5738 5736 5735 5734 5732 5730 5728 5727 5725 5723 5722 5720 5718 5717 5715 5713 5712 5710 5709
5802 5802 5801 5801 5800 5799 5799 5798 5797 5796 5795 5794 5794 5793 5793 5792 5792 5791 5791 5791 5790 5790 5789 5788 5788 5787 5786 5786 5785 5784 5783 5782 5781 5781 5780 5779 5778 5777 5776 5775 5774 5773 5772 5771 5770 5769 5768 5766 5765 5764 5762 5761 5760 5758 5757 5755 5754 5752 5751 5749 5747 5745 5743 5742 5741 5739 5738 5736 5735 5734 5731 5731 5730 5728 5726 5724 5722 5720 5718 5717 5715 5713 5711 5710 5708 5706 5705 5703
5801 5801 5800 5800 5799 5799 5798 5797 5796 5795 5794 5793 5793 5793 5792 5792 5792 5791 5790 5790 5789 5789 5788 5787 5787 5786 5785 5784 5783 5783 5782 5781 5780 5779 5778 5777 5776 5776 5775 5774 5772 5771 5770 5769 5768 5767 5765 5764 5762 5761 5760 5758 5757 5755 5754 5753 5751 5749 5748 5746 5744 5742 5739 5738 5737 5735 5733 5731 5730 5729 5726 5726 5725 5723 5722 5720 5718 5716 5714 5712 5710 5708 5706 5704 5703 5701 5699 5697
5800 5800 5800 5799 5799 5798 5797 5796 5795 5794 5794 5793 5793 5792 5792 5792 5791 5790 5790 5789 5789 5788 5787 5786 5786 5785 5784 5783 5782 5781 5780 5780 5779 5778 5777 5776 5775 5774 5773 5772 5771 5769 5768 5767 5765 5764 5763 5761 5760 5759 5757 5756 5754 5753 5751 5749 5748 5746 5744 5742 5741 5739 5736 5735 5733 5731 5729 5727 5726 5723 5722 5721 5720 5718 5717 5715 5713 5711 5709 5707 5705 5703 5701 5699 5698 5696 5694 5692
5799 5799 5799 5798 5798 5797 5796 5795 5794 5794 5793 5793 5792 5792 5792 5791 5791 5790 5789 5789 5788 5787 5786 5785 5784 5783 5783 5782 5781 5780 5779 5778 5777 5776 5775 5774 5773 5772 5771 5770 5768 5767 5766 5765 5763 5762 5761 5759 5758 5756 5755 5753 5752 5750 5748 5746 5744 5743 5741 5739 5737 5736 5733 5731 5729 5728 5726 5723 5722 5720 5717 5716 5715 5713 5712 5710 5708 5705 5703 5701 5699 5698 5696 5694 5692 5690 5688 5686
5799 5798 5798 5797 5797 5796 5795 5794 5794 5793 5793 5792 5792 5792 5791 5791 5790 5789 5789 5788 5787 5786 5785 5784 5783 5782 5781 5781 5780 5779 5778 5777 5775 5774 5773 5772 5771 5770 5769 5767 5766 5765 5763 5762 5761 5760 5758 5757 5755 5754 5752 5751 5749 5747 5745 5743 5741 5739 5738 5736 5734 5732 5730 5728 5725 5724 5722 5720 5718 5716 5714 5713 5711 5709 5707 5705 5702 5700 5698 5696 5694 5692 5690 5688 5685 5684 5682 5680
5798 5797 5797 5796 5795 5795 5794 5794 5793 5793 5792 5792 5792 5791 5791 5790 5789 5789 5788 5787 5786 5785 5784 5783 5782 5781 5780 5779 5778 5777 5776 5775 5774 5773 5771 5770 5769 5768 5767 5765 5764 5763 5762 5760 5759 5758 5756 5755 5753 5751 5750 5748 5746 5744 5742 5740 5738 5736 5734 5732 5730 5728 5726 5723 5721 5719 5718 5716 5714 5712 5710 5709 5707 5704 5702 5700 5697 5695 5692 5690 5688 5685 5683 5681 5679 5677 5675 5673
5797 5796 5796 5795 5794 5794 5793 5793 5793 5792 5792 5791 5791 5791 5790 5789 5789 5788 5787 5786 5785 5785 5784 5783 5782 5781 5779 5778 5777 5776 5775 5773 5772 5771 5770 5769 5768 5766 5765 5764 5763 5762 5760 5759 5757 5756 5754 5752 5750 5748 5746 5744 5743 5741 5739 5737 5735 5733 5731 5728 5727 5724 5722 5720 5718 5715 5713 5711 5709 5708 5706 5704 5702 5699 5697 5694 5692 5689 5687 5684 5682 5679 5677 5675 5673 5671 5669 5666
5796 5795 5794 5794 5793 5793 5793 5792 5792 5792 5791 5791 5790 5790 5789 5788 5788 5787 5786 5786 5785 5784 5783 5782 5781 5780 5778 5777 5776 5775 5774 5773 5771 5770 5769 5768 5767 5766 5764 5763 5762 5760 5759 5757 5755 5753 5751 5749 5747 5745 5743 5741 5739 5737 5735 5733 5731 5729 5727 5725 5723 5721 5719 5717 5714 5712 5710 5708 5706 5704 5702 5700 5697 5694 5691 5689 5686 5684 5681 5678 5676 5673 5671 5669 5667 5665 5662 5660
5795 5794 5793 5793 5793 5792 5792 5792 5792 5791 5791 5790 5790 5789 5788 5787 5787 5786 5785 5785 5784 5783 5782 5781 5780 5779 5778 5776 5775 5774 5773 5772 5771 5770 5768 5767 5766 5765 5763 5762 5760 5758 5757 5755 5753 5751 5748 5746 5744 5742 5740 5738 5736 5734 5732 5730 5727 5725 5723 5721 5719 5717 5715 5713 5710 5708 5706 5704 5702 5700 5697 5695 5692 5688 5686 5683 5680 5677 5675 5672 5669 5667 5664 5662 5660 5658 5656 5654
5793 5793 5793 5793 5792 5792 5792 5792 5791 5791 5790 5789 5789 5788 5787 5786 5786 5785 5784 5784 5783 5782 5781 5780 5779 5778 5776 5775 5774 5774 5773 5772 5770 5769 5768 5766 5765 5763 5762 5760 5758 5756 5754 5752 5750 5748 5746 5744 5742 5739 5737 5735 5732 5730 5728 5726 5724 5721 5719 5717 5714 5712 5710 5708 5705 5703 5701 5699 5696 5694 5691 5689 5686 5682 5680 5677 5674 5671 5668 5665 5662 5660 5658 5655 5653 5651 5650 5648
5792 5792 5792 5792 5792 5792 5791 5791 5790 5790 5789 5789 5788 5787 5786 5786 5785 5784 5783 5783 5782 5781 5780 5779 5778 5777 5776 5775 5774 5773 5772 5771 5769 5768 5767 5765 5763 5762 5760 5758 5756 5754 5752 5749 5747 5745 5743 5740 5738 5736 5734 5731 5729 5727 5724 5722 5720 5718 5715 5712 5710 5707 5705 5702 5700 5697 5695 5692 5689 5687 5685 5682 5679 5676 5673 5670 5667 5664 5661 5659 5656 5654 5652 5649 5648 5646 5644 5643
5792 5792 5792 5792 5792 5791 5791 5790 5790 5789 5789 5788 5787 5786 5786 5785 5784 5783 5783 5782 5781 5780 5779 5778 5777 5776 5775 5774 5773 5772 5771 5769 5768 5766 5765 5763 5761 5759 5757 5755 5753 5751 5749 5746 5744 5742 5740 5737 5735 5733 5730 5728 5726 5724 5721 5719 5716 5714 5711 5708 5705 5702 5699 5697 5695 5692 5689 5686 5683 5680 5678 5676 5673 5669 5666 5664 5661 5658 5655 5653 5650 5648 5646 5644 5642 5641 5639 5638
5792 5791 5791 5791 5791 5791 5790 5790 5789 5789 5788 5787 5786 5786 5785 5784 5783 5783 5782 5781 5780 5779 5778 5777 5776 5775 5774 5773 5772 5771 5770 5768 5767 5765 5763 5761 5759 5757 5755 5752 5750 5748 5746 5743 5741 5739 5737 5734 5732 5730 5727 5725 5723 5721 5718 5716 5713 5710 5707 5704 5701 5698 5695 5692 5689 5687 5684 5681 5677 5674 5671 5669 5667 5663 5660 5657 5654 5652 5649 5647 5645 5643 5641 5639 5638 5636 5635 5633
5791 5791 5791 5790 5790 5790 5790 5789 5789 5788 5787 5787 5786 5785 5784 5783 5783 5782 5781 5780 5779 5778 5777 5776 5775 5774 5774 5773 5772 5770 5769 5767 5765 5763 5761 5759 5757 5754 5752 5749 5748 5745 5743 5741 5738 5736 5733 5731 5729 5726 5724 5722 5720 5717 5715 5712 5710 5707 5704 5701 5698 5695 5692 5688 5685 5681 5678 5675 5672 5668 5665 5663 5660 5657 5654 5651 5648 5646 5643 5641 5640 5638 5636 5635 5633 5632 5631 5630
5791 5790 5790 5790 5789 5789 5789 5789 5788 5788 5787 5786 5785 5785 5784 5783 5782 5781 5780 5779 5778 5777 5776 5776 5775 5774 5773 5772 5771 5769 5767 5766 5764 5762 5759 5756 5754 5752 5750 5747 5745 5743 5740 5738 5735 5733 5730 5727 5725 5723 5721 5718 5716 5713 5711 5709 5706 5704 5701 5698 5694 5691 5688 5684 5680 5676 5673 5670 5666 5662 5659 5656 5654 5651 5648 5645 5642 5640 5638 5637 5635 5633 5632 5631 5630 5628 5627 5626
5790 5790 5789 5789 5789 5789 5788 5788 5787 5787 5786 5786 5785 5784 5783 5782 5781 5780 5779 5779 5778 5777 5776 5775 5774 5773 5772 5771 5769 5768 5766 5764 5761 5759 5757 5754 5752 5750 5747 5745 5742 5740 5738 5735 5732 5729 5727 5724 5722 5719 5717 5715 5713 5710 5708 5706 5703 5701 5698 5694 5691 5687 5684 5680 5676 5671 5668 5665 5661 5657 5654 5651 5649 5646 5643 5640 5638 5636 5635 5633 5631 5630 5628 5627 5626 5625 5624 5623
5789 5789 5789 5788 5788 5788 5787 5787 5787 5786 5786 5785 5784 5784 5783 5782 5781 5780 5779 5778 5778 5777 5776 5775 5774 5773 5772 5770 5768 5766 5764 5761 5759 5757 5754 5752 5750 5747 5745 5742 5740 5737 5735 5732 5730 5727 5724 5722 5719 5716 5714 5712 5710 5708 5705 5703 5700 5697 5694 5690 5687 5683 5679 5675 5671 5666 5663 5660 5656 5653 5650 5647 5645 5643 5640 5637 5635 5634 5631 5629 5628 5626 5625 5624 5623 5622 5620 5619
5788 5788 5788 5788 5787 5787 5787 5786 5786 5785 5785 5785 5784 5783 5782 5781 5781 5780 5779 5778 5778 5777 5776 5775 5774 5772 5771 5769 5766 5764 5762 5759 5757 5754 5752 5749 5747 5744 5742 5740 5737 5735 5732 5730 5727 5725 5722 5719 5717 5714 5711 5709 5707 5705 5702 5700 5697 5694 5691 5687 5683 5679 5675 5671 5667 5663 5659 5656 5653 5650 5647 5643 5641 5639 5637 5634 5632 5630 5628 5626 5625 5623 5622 5621 5619 5618 5617 5615
5788 5787 5787 5787 5787 5786 5786 5786 5785 5785 5785 5784 5783 5783 5782 5781 5781 5780 5779 5778 5778 5777 5775 5774 5773 5771 5769 5767 5764 5762 5760 5757 5754 5752 5749 5746 5744 5741 5738 5736 5734 5732 5729 5727 5725 5722 5720 5717 5715 5712 5709 5706 5704 5702 5700 5697 5694 5691 5688 5684 5679 5676 5672 5668 5664 5660 5657 5653 5650 5647 5643 5640 5638 5636 5634 5631 5629 5627 5626 5624 5622 5621 5619 5618 5616 5615 5614 5612
5787 5787 5787 5786 5786 5786 5786 5785 5785 5785 5784 5784 5783 5783 5782 5781 5781 5780 5779 5778 5777 5776 5775 5773 5771 5769 5767 5765 5763 5760 5758 5755 5753 5750 5748 5746 5743 5740 5737 5735 5732 5730 5727 5725 5723 5720 5718 5715 5712 5710 5707 5704 5701 5699 5696 5694 5691 5688 5685 5682 5678 5674 5670 5667 5663 5659 5655 5651 5648 5644 5641 5639 5636 5634 5632 5629 5627 5625 5624 5622 5621 5619 5617 5616 5614 5612 5611 5609
5787 5786 5786 5786 5786 5786 5786 5785 5785 5785 5784 5784 5783 5783 5782 5782 5781 5780 5779 5778 5777 5776 5774 5772 5770 5768 5765 5763 5761 5758 5756 5754 5752 5749 5747 5745 5742 5740 5737 5734 5731 5728 5726 5723 5721 5718 5716 5713 5710 5708 5705 5702 5700 5697 5694 5691 5689 5686 5683 5680 5676 5673 5669 5665 5662 5658 5654 5650 5647 5643 5640 5638 5635 5633 5630 5628 5626 5624 5622 5620 5619 5617 5615 5614 5612 5610 5608 5606
5786 5786 5786 5786 5786 5786 5786 5785 5785 5784 5784 5784 5783 5783 5782 5782 5781 5780 5779 5778 5776 5775 5773 5771 5768 5766 5764 5762 5759 5757 5754 5752 5750 5748 5745 5742 5740 5737 5734 5732 5729 5726 5723 5721 5718 5716 5714 5711 5709 5706 5703 5701 5698 5695 5692 5689 5686 5684 5680 5677 5674 5670 5667 5663 5660 5656 5653 5649 5645 5642 5639 5636 5634 5631 5629 5627 5624 5622 5620 5618 5616 5615 5613 5611 5609 5607 5605 5603
5786 5786 5786 5786 5786 5786 5785 5785 5785 5785 5784 5784 5783 5783 5782 5782 5781 5780 5778 5777 5775 5773 5771 5769 5767 5765 5762 5760 5758 5755 5753 5751 5748 5746 5743 5740 5738 5735 5732 5730 5727 5724 5721 5719 5716 5714 5712 5709 5706 5704 5701 5698 5695 5692 5689 5687 5684 5681 5678 5675 5671 5668 5665 5661 5658 5655 5651 5648 5644 5641 5638 5635 5632 5630 5627 5625 5623 5620 5618 5616 5614 5612 5610 5608 5606 5604 5602 5600
5786 5786 5786 5786 5786 5786 5786 5785 5785 5785 5784 5784 5783 5783 5782 5781 5780 5779 5778 5776 5774 5772 5770 5768 5765 5763 5761 5758 5756 5754 5751 5749 5747 5744 5741 5739 5736 5734 5731 5728 5725 5722 5719 5717 5714 5712 5709 5706 5704 5701 5698 5695 5692 5689 5687 5684 5681 5679 5676 5673 5670 5667 5663 5660 5656 5653 5650 5647 5643 5641 5638 5635 5632 5629 5626 5624 5621 5619 5616 5614 5612 5609 5607 5605 5603 5601 5598 5596
5786 5786 5786 5786 5786 5786 5786 5786 5785 5785 5785 5784 5784 5783 5782 5781 5780 5778 5777 5775 5773 5771 5769 5766 5764 5761 5759 5757 5754 5752 5750 5747 5745 5742 5739 5737 5734 5731 5728 5726 5723 5720 5717 5714 5712 5709 5706 5704 5701 5699 5696 5693 5691 5688 5685 5682 5679 5677 5674 5671 5668 5665 5662 5658 5655 5652 5649 5647 5643 5640 5637 5634 5632 5629 5626 5623 5620 5618 5615 5613 5610 5607 5605 5603 5600 5598 5595 5593
5786 5787 5787 5787 5787 5786 5786 5786 5786 5785 5785 5784 5784 5783 5782 5781 5779 5778 5776 5774 5772 5769 5767 5765 5763 5760 5758 5756 5753 5751 5748 5745 5743 5740 5737 5735 5732 5729 5726 5723 5720 5718 5715 5712 5709 5707 5705 5702 5699 5697 5694 5691 5689 5686 5683 5680 5678 5675 5672 5670 5667 5663 5660 5657 5654 5651 5648 5646 5643 5639 5636 5633 5630 5627 5625 5622 5619 5617 5614 5611 5608 5606 5603 5600 5598 5595 5592 5590
5787 5787 5787 5787 5787 5787 5787 5786 5786 5786 5785 5785 5784 5782 5781 5780 5779 5777 5775 5773 5771 5768 5766 5764 5761 5759 5757 5755 5752 5749 5747 5744 5741 5738 5736 5733 5730 5727 5724 5721 5718 5716 5713 5710 5707 5705 5702 5700 5697 5695 5692 5689 5687 5684 5681 5678 5676 5674 5671 5668 5665 5662 5659 5656 5653 5650 5647 5644 5641 5638 5635 5631 5629 5626 5623 5621 5618 5615 5612 5609 5606 5603 5601 5598 5595 5592 5589 5586
5787 5787 5787 5787 5787 5787 5787 5787 5786 5786 5785 5785 5783 5782 5781 5780 5778 5776 5774 5772 5770 5767 5765 5763 5761 5758 5756 5753 5751 5748 5745 5743 5740 5737 5734 5731 5728 5725 5722 5719 5717 5714 5711 5709 5706 5703 5701 5698 5696 5693 5690 5687 5685 5682 5680 5678 5675 5673 5670 5667 5664 5661 5658 5655 5652 5649 5646 5643 5639 5637 5634 5630 5627 5625 5622 5619 5616 5612 5609 5607 5604 5601 5598 5595 5592 5589 5586 5583
5788 5788 5788 5788 5787 5787 5787 5787 5786 5786 5785 5784 5783 5782 5781 5779 5777 5775 5773 5771 5769 5766 5764 5762 5760 5757 5755 5752 5749 5747 5744 5741 5738 5735 5732 5729 5726 5723 5721 5718 5715 5713 5710 5707 5705 5702 5699 5697 5694 5692 5689 5686 5684 5682 5679 5677 5674 5672 5669 5667 5664 5661 5658 5654 5651 5648 5645 5642 5638 5635 5632 5628 5625 5623 5620 5616 5613 5610 5607 5604 5601 5598 5595 5591 5588 5585 5581 5578
5788 5788 5788 5788 5788 5787 5787 5787 5787 5786 5785 5784 5783 5782 5780 5778 5776 5774 5772 5770 5768 5765 5763 5761 5759 5756 5753 5751 5748 5745 5742 5739 5736 5734 5731 5728 5725 5722 5719 5717 5714 5711 5708 5706 5703 5701 5698 5696 5693 5691 5688 5686 5683 5681 5678 5676 5673 5671 5668 5665 5662 5659 5656 5653 5649 5647 5643 5640 5636 5633 5630 5627 5622 5619 5617 5614 5611 5608 5604 5600 5597 5595 5591 5587 5584 5580 5576 5573
5789 5789 5789 5788 5788 5788 5788 5788 5787 5786 5785 5784 5783 5781 5779 5777 5775 5773 5771 5769 5767 5765 5762 5760 5758 5755 5752 5749 5747 5744 5741 5738 5735 5732 5729 5726 5724 5721 5718 5715 5713 5710 5707 5704 5702 5700 5697 5695 5692 5690 5687 5685 5682 5680 5677 5674 5672 5669 5666 5663 5660 5657 5654 5650 5647 5644 5641 5638 5634 5630 5628 5625 5620 5616 5613 5610 5607 5604 5600 5597 5593 5590 5587 5582 5579 5575 5571 5567
5789 5789 5789 5789 5789 5788 5788 5788 5787 5786 5785 5784 5782 5781 5779 5777 5775 5773 5771 5768 5766 5764 5762 5759 5757 5754 5751 5748 5746 5743 5740 5737 5734 5731 5728 5725 5723 5720 5717 5715 5712 5709 5706 5704 5701 5699 5697 5694 5692 5689 5687 5684 5682 5679 5676 5673 5670 5667 5664 5661 5658 5655 5651 5648 5645 5642 5639 5636 5633 5628 5624 5623 5618 5612 5608 5605 5603 5600 5597 5592 5589 5585 5582 5578 5573 5570 5566 5562
5790 5789 5789 5789 5789 5789 5788 5788 5787 5786 5785 5783 5782 5780 5778 5776 5774 5772 5770 5768 5766 5763 5761 5758 5756 5753 5750 5748 5745 5742 5739 5736 5733 5730 5727 5724 5721 5719 5716 5714 5711 5708 5705 5703 5700 5698 5695 5693 5690 5688 5685 5683 5680 5677 5674 5671 5668 5665 5662 5659 5656 5653 5648 5645 5641 5639 5636 5633 5630 5625 5620 5620 5617 5610 5604 5601 5598 5595 5592 5588 5583 5579 5576 5572 5568 5564 5560 5556
5790 5790 5790 5790 5790 5789 5788 5788 5787 5786 5784 5783 5781 5779 5777 5776 5773 5771 5769 5767 5765 5763 5760 5758 5755 5752 5750 5747 5744 5741 5738 5735 5732 5729 5726 5723 5720 5718 5715 5712 5710 5707 5704 5702 5699 5696 5694 5691 5689 5686 5683 5681 5678 5675 5672 5670 5667 5663 5660 5657 5654 5650 5647 5642 5638 5635 5632 5628 5627 5623 5616 5615 5615 5608 5601 5597 5593 5590 5587 5583 5578 5574 5570 5565 5561 5557 5554 5550
5791 5790 5790 5790 5790 5789 5788 5788 5787 5785 5784 5782 5781 5779 5777 5775 5773 5771 5769 5767 5765 5762 5759 5757 5754 5752 5749 5746 5743 5740 5737 5734 5731 5728 5725 5722 5719 5716 5714 5711 5708 5706 5703 5700 5698 5695 5692 5689 5687 5684 5681 5679 5676 5673 5670 5667 5665 5662 5658 5655 5652 5648 5644 5640 5636 5631 5627 5623 5621 5620 5614 5610 5609 5605 5599 5594 5589 5586 5582 5578 5574 5569 5564 5559 5555 5551 5547 5543
5791 5791 5791 5791 5790 5789 5789 5788 5787 5785 5783 5782 5780 5778 5776 5774 5772 5770 5768 5766 5764 5761 5759 5756 5754 5751 5748 5745 5742 5739 5736 5733 5730 5727 5724 5721 5718 5715 5712 5710 5707 5704 5702 5699 5696 5693 5690 5687 5685 5682 5679 5676 5673 5670 5667 5665 5662 5659 5656 5652 5649 5645 5641 5638 5634 5628 5623 5619 5616 5614 5610 5607 5604 5599 5594 5590 5585 5581 5578 5573 5568 5564 5559 5554 5548 5544 5540 5536
5792 5792 5791 5791 5790 5789 5789 5787 5786 5785 5783 5781 5780 5778 5776 5774 5772 5770 5768 5766 5763 5761 5758 5756 5753 5750 5747 5744 5741 5738 5735 5731 5728 5725 5722 5719 5717 5714 5711 5708 5705 5703 5700 5697 5695 5692 5689 5686 5683 5680 5677 5673 5670 5668 5664 5661 5659 5657 5653 5648 5645 5642 5638 5634 5631 5626 5620 5615 5612 5608 5604 5604 5600 5592 5589 5586 5580 5575 5572 5568 5563 5558 5553 5547 5542 5538 5534 5529
5792 5792 5792 5791 5790 5790 5789 5787 5786 5784 5783 5781 5779 5778 5776 5774 5772 5770 5768 5765 5763 5760 5758 5755 5753 5750 5747 5743 5740 5737 5734 5730 5727 5724 5721 5718 5715 5712 5709 5707 5704 5701 5698 5695 5693 5690 5687 5684 5681 5679 5676 5672 5668 5665 5662 5658 5655 5653 5650 5646 5641 5638 5635 5631 5627 5623 5616 5611 5608 5604 5599 5598 5595 5587 5583 5580 5575 5570 5567 5562 5557 5552 5546 5541 5536 5532 5527 5523
5792 5792 5792 5791 5790 5789 5788 5787 5786 5784 5782 5781 5779 5777 5776 5774 5772 5769 5767 5765 5762 5760 5757 5754 5752 5749 5746 5743 5739 5736 5732 5729 5726 5723 5720 5717 5714 5711 5708 5705 5702 5699 5696 5693 5690 5687 5684 5682 5678 5675 5674 5670 5665 5662 5659 5655 5652 5649 5646 5643 5638 5634 5631 5628 5624 5619 5613 5607 5603 5599 5595 5592 5589 5583 5578 5574 5569 5564 5561 5557 5552 5546 5539 5534 5529 5525 5521 5515
5793 5793 5792 5791 5790 5789 5788 5787 5785 5784 5782 5780 5779 5777 5775 5773 5771 5769 5767 5764 5761 5759 5756 5754 5751 5748 5745 5742 5738 5735 5731 5728 5725 5722 5719 5715 5712 5709 5706 5703 5700 5697 5694 5690 5687 5684 5681 5678 5675 5671 5669 5668 5663 5659 5655 5652 5649 5646 5642 5639 5635 5630 5626 5624 5621 5616 5610 5603 5597 5594 5591 5587 5582 5577 5573 5569 5563 5558 5554 5551 5546 5539 5533 5528 5523 5518 5513 5508